Weather History for Missoula, MT

Change the Weather History Date:

Friday, October 25, 2013

  Actual Average Record
Temperature  
Mean Temperature 43 °F 42 °F  
Max Temperature 61 °F 53 °F 76 °F (1924)
Min Temperature 24 °F 30 °F 10 °F (1919)
Degree Days  
Heating Degree Days 22 23  
Month to date heating degree days 541 469  
Since 1 July heating degree days 742 794  
Cooling Degree Days 0 0  
Month to date cooling degree days 0 0  
Year to date cooling degree days 579 332  
Moisture  
Dew Point 29 °F    
Average Humidity 64    
Maximum Humidity 92    
Minimum Humidity 36    
Precipitation  
Precipitation 0.00 in 0.03 in 0.90 in (1896)
Month to date precipitation 0.04 0.70  
Year to date precipitation 7.77 11.90  
Snow  
Snow 0.00 in - - ()
Month to date snowfall 0.0  
Year to date snowfall 27.4  
Since 1 July snowfall T  
Snow Depth 0.00 in    
Sea Level Pressure  
Sea Level Pressure 30.31 in    
Wind  
Wind Speed 0 mph (SE)    
Max Wind Speed 6 mph    
Max Gust Speed 8 mph    
Visibility 9 miles    
Events Fog    
T = Trace of Precipitation, MM = Missing Value Source: NWS Daily Summary

Daily Weather History Graph

Daily Weather History Graph

Search for Another Location

Airport:

Trip Planner

Search our weather history database for the weather conditions in past years. The results will help you decide how hot, cold, wet, or windy it might be!

Date:

Astronomy

Oct. 25, 2013 Rise Set
Actual Time 8:09 AM MDT 6:30 PM MDT
Civil Twilight 7:37 AM MDT 7:02 PM MDT
Nautical Twilight 7:02 AM MDT 7:37 PM MDT
Astronomical Twilight 6:27 AM MDT 8:12 PM MDT
Moon 11:49 PM MDT (10/25) 1:58 PM MDT (10/25)
Length of Visible Light 11h 24m
Length of Day
10h 21m
Waning Gibbous, 62% of the Moon is Illuminated
Oct 25
Waning Gibbous
Oct 26
Last Quarter
Nov 3
New
Nov 9
First Quarter
Nov 17
Full

Hourly Weather History & Observations

Time (MDT) Temp. Windchill Dew Point Humidity Pressure Visibility Wind Dir Wind Speed Gust Speed Precip Events Conditions
12:53 AM 36.0 °F - 30.0 °F 79% 30.24 in 10.0 mi Calm Calm - N/A   Clear
1:53 AM 33.1 °F - 28.9 °F 85% 30.25 in 10.0 mi Calm Calm - N/A   Clear
2:53 AM 32.0 °F - 28.0 °F 85% 30.26 in 10.0 mi Calm Calm - N/A   Clear
3:53 AM 33.1 °F - 28.9 °F 85% 30.27 in 10.0 mi Calm Calm - N/A   Clear
4:53 AM 30.0 °F - 28.0 °F 92% 30.27 in 10.0 mi Calm Calm - N/A   Clear
5:53 AM 32.0 °F - 27.0 °F 82% 30.29 in 10.0 mi Calm Calm - N/A   Clear
6:53 AM 30.0 °F - 27.0 °F 88% 30.31 in 10.0 mi Calm Calm - N/A   Clear
7:41 AM 24.8 °F - 21.2 °F 86% 30.26 in 6.0 mi Calm Calm - N/A   Scattered Clouds
7:46 AM 24.8 °F - 23.0 °F 93% 30.26 in 1.8 mi Calm Calm - N/A   Scattered Clouds
7:49 AM 24.8 °F - 23.0 °F 93% 30.26 in 1.0 mi Calm Calm - N/A   Mist
7:53 AM 24.1 °F - 23.0 °F 96% 30.35 in 0.5 mi Calm Calm - N/A Fog Light Freezing Fog
8:02 AM 24.8 °F - 24.8 °F 100% 30.27 in 1.2 mi Calm Calm - N/A   Scattered Clouds
8:04 AM 24.8 °F - 24.8 °F 100% 30.27 in 2.5 mi Calm Calm - N/A   Partly Cloudy
8:11 AM 26.6 °F - 24.8 °F 93% 30.27 in 9.0 mi Calm Calm - N/A   Partly Cloudy
8:53 AM 28.9 °F - 26.1 °F 89% 30.37 in 9.0 mi Calm Calm - N/A   Clear
9:53 AM 32.0 °F - 30.0 °F 92% 30.39 in 10.0 mi Calm Calm - N/A   Clear
10:53 AM 39.0 °F - 32.0 °F 76% 30.37 in 10.0 mi Calm Calm - N/A   Clear
11:53 AM 44.1 °F - 33.1 °F 65% 30.35 in 10.0 mi Calm Calm - N/A   Clear
12:53 PM 48.9 °F - 32.0 °F 52% 30.34 in 10.0 mi Calm Calm - N/A   Clear
1:53 PM 54.0 °F - 32.0 °F 43% 30.32 in 10.0 mi Calm Calm - N/A   Clear
2:53 PM 57.9 °F - 32.0 °F 37% 30.30 in 10.0 mi Calm Calm - N/A   Clear
3:53 PM 60.1 °F - 33.1 °F 36% 30.27 in 10.0 mi Calm Calm - N/A   Clear
4:53 PM 60.1 °F - 33.1 °F 36% 30.27 in 10.0 mi Calm Calm - N/A   Clear
5:53 PM 59.0 °F - 34.0 °F 39% 30.27 in 10.0 mi Calm Calm - N/A   Clear
6:53 PM 52.0 °F - 34.0 °F 50% 30.30 in 10.0 mi Calm Calm - N/A   Clear
7:53 PM 45.0 °F - 33.1 °F 63% 30.34 in 10.0 mi Calm Calm - N/A   Clear
8:53 PM 44.1 °F - 33.1 °F 65% 30.34 in 10.0 mi Calm Calm - N/A   Clear
9:53 PM 41.0 °F - 32.0 °F 70% 30.35 in 10.0 mi Calm Calm - N/A   Clear
10:53 PM 39.0 °F - 30.9 °F 73% 30.36 in 10.0 mi Calm Calm - N/A   Clear
11:53 PM 39.9 °F 37.8 °F 30.9 °F 70% 30.36 in 10.0 mi SE 3.5 mph - N/A   Clear